Location: Unspecified
(47.0333°N, 0.0000°E)
Time: 13:39:30
(UTC+00:00)

OTV 5 (USA 277) - Pass Details

Date: 20 June 2019
Orbit: 305 x 329 km, 54.5° (Epoch: 11 August)

Event Time Altitude Azimuth Distance (km) Brightness Sun altitude
Exits shadow 23:12:55 11° 262° (W) 1,196 ? -18.7°
Maximum altitude 23:15:26 41° 335° (NNW) 496 ? -18.8°
Drops below altitude 10° 23:18:07 10° 48° (NE) 1,262 ? -18.9°
Enters shadow 00:29:34 -38° 262° (W) 8,279 ? -19.3°
